Regional Weather Roundup
Issued by NWS

Home | Current Version | Previous Version | Text Only | Print | Product List | Glossary Off
Versions: 1 2 3 4 5 6 7 8 9 10 11 12 13 14 15 16 17 18 19 20 21 22 23 24 25 26 27 28 29 30 31 32 33 34 35 36 37 38 39 40 41 42 43 44 45 46 47 48 49 50

000
ASUS43 KLOT 221410
RWRIL

ILLINOIS REGIONAL WEATHER ROUNDUP
NATIONAL WEATHER SERVICE CHICAGO/ROMEOVILLE IL
900 AM CDT MON SEP 22 2014

NOTE: "FAIR" INDICATES FEW OR NO CLOUDS BELOW 12,000 FEET WITH NO
SIGNIFICANT WEATHER AND/OR OBSTRUCTIONS TO VISIBILITY.

* THESE STATIONS ARE NOT UNDER NWS QUALITY CONTROL. THEY ALSO MAY NOT
  REPORT WEATHER SUCH AS PRECIPITATION OR FOG.

ILZ001-002-007-009-015-016-024-221500-
NORTHWEST ILLINOIS

CITY           SKY/WX    TMP DP  RH WIND       PRES   REMARKS
MOLINE         SUNNY     53  45  74 CALM      30.31R
STERLING*      SUNNY     54  43  66 CALM      30.30S
SAVANNA*       SUNNY     51  50  94 CALM      30.31R
$$

ILZ003-004-008-010-011-017-018-221500-
NORTH CENTRAL ILLINOIS

CITY           SKY/WX    TMP DP  RH WIND       PRES   REMARKS
ROCKFORD       SUNNY     52  44  74 CALM      30.31R
FREEPORT*      SUNNY     46  44  91 CALM      30.32R
ROCHELLE*      SUNNY     49  45  86 CALM      30.30R
DE KALB*       SUNNY     48  42  80 N5        30.30R
PERU*          SUNNY     52  43  71 NE6       30.31R
$$

ILZ005-006-012>014-019>023-221500-
NORTHEAST ILLINOIS

CITY           SKY/WX    TMP DP  RH WIND       PRES   REMARKS
CHICAGO-OHARE  MOSUNNY   51  40  65 NW6       30.27R
CHICAGO-MIDWAY MOSUNNY   54  44  69 NW7       30.27R
AURORA         SUNNY     51  44  77 N6        30.29R
LANSING*       SUNNY     54  46  75 N6        30.26F
JOLIET*        SUNNY     52  43  72 N3        30.29R
WAUKEGAN       SUNNY     51  42  71 W5        30.27R
DUPAGE AIRPORT SUNNY     52  43  71 N6        30.28R
KANKAKEE*      SUNNY     53  47  79 CALM      30.29S
WHEELING       SUNNY     54  43  66 NW6       30.29R
MORRIS*        SUNNY     52  46  80 CALM      30.29R
ROMEOVILLE*    SUNNY     52  44  75 CALM      30.29R
NORTHERLY ISL    N/A     55  45  68 NW8         N/A
$$

LMZ740>746-221500-
SOUTHERN LAKE MICHIGAN

STATION/POSITION SKY/WX   TEMP    WIND        PRES    VSBY  WAVE
                          AIR SEA DIR/SP/G                  HT/PER
                          (F)     (DEG/KT/KT) (MB)    (MI)  (FT/S)
SOUTHERN BUOY              54 61  340/ 10/ 12 1024.6R         4/ 7
WAUKEGAN HARBOR            52     310/  6/  8   N/A
HARRISON CRIB              52     330/ 12/ 14   N/A
BURNHAM HARBOR             55     320/  6/  9   N/A
CALUMET HARBOR             55     330/  5/  8 1023.4S
MICHIGAN CITY              51     130/  2/  3   N/A
MICHIGAN CITY 6N           52 63  130/  4/  8   N/A           5/ 7
ST. JOSEPH                 53 65   80/  4/  6   N/A           4/ 7
$$

ILZ025>027-034>036-040-047-049-050-058-095>099-221500-
WEST-CENTRAL ILLINOIS

CITY           SKY/WX    TMP DP  RH WIND       PRES   REMARKS
QUINCY         SUNNY     55  49  80 NE6       30.31R
GALESBURG*     SUNNY     52  49  91 N6        30.32R
MACOMB*        SUNNY     53  49  86 N5        30.33R
JACKSONVILLE*  SUNNY     57  52  84 N3        30.30R
PITTSFIELD*    SUNNY     57  50  77 CALM      30.32R
$$

ILZ028>032-037-038-041>044-048-051>054-059>061-221500-
CENTRAL ILLINOIS

CITY           SKY/WX    TMP DP  RH WIND       PRES   REMARKS
PONTIAC        SUNNY     54  48  82 N3        30.29R
DECATUR        SUNNY     57  49  74 N8        30.29R
PEORIA         SUNNY     55  47  74 NE3       30.30R
LACON*         SUNNY     50  46  85 CALM      30.30R
LINCOLN*       SUNNY     56  49  79 N3        30.28S
SPRINGFIELD    SUNNY     57  50  77 E5        30.30R
TAYLORVILLE    SUNNY     52  50  93 CALM      30.29S
$$

ILZ033-039-045-046-055>057-062-063-221500-
EAST-CENTRAL ILLINOIS

CITY           SKY/WX    TMP DP  RH WIND       PRES   REMARKS
CHAMPAIGN      MOSUNNY   55  49  80 N6        30.29R
DANVILLE*      SUNNY     53  48  83 N6        30.26R
RANTOUL*       SUNNY     55  47  75 N3        30.29R
MATTOON        SUNNY     54  49  83 N9        30.28R
PARIS*         SUNNY     55  51  85 N3        30.29R
$$

ILZ079-100>102-221500-
SOUTHWEST ILLINOIS

CITY           SKY/WX    TMP DP  RH WIND       PRES   REMARKS
BELLEVILLE     SUNNY     59  54  82 NE3       30.28R
CAHOKIA*       SUNNY     59  52  77 VRB5      30.30R
SPARTA*        SUNNY     56  52  88 CALM      30.30R
$$

ILZ064>066-069>071-074>076-080>082-084>086-088>090-092>094-221500-
SOUTH-CENTRAL ILLINOIS

CITY           SKY/WX    TMP DP  RH WIND       PRES   REMARKS
CARBONDALE     SUNNY     58  52  80 VRB5      30.28R
CAIRO*         SUNNY     61  55  81 NE6       30.25S
EFFINGHAM*     SUNNY     56  47  71 N8        30.28R
MARION         MOSUNNY   59  54  82 N8        30.28R
MT. VERNON     SUNNY     57  48  72 NE7       30.28R
CENTRALIA*     SUNNY     57  51  80 NE5       30.28R
SALEM*         SUNNY     58  56  90 CALM      30.29R
METROPOLIS*    SUNNY     60  55  83 CALM      30.24S
$$

ILZ067-068-072-073-078-083-087-091-221500-
SOUTHEAST ILLINOIS

CITY           SKY/WX    TMP DP  RH WIND       PRES   REMARKS
LAWRENCEVILLE  SUNNY     58  52  80 N8        30.26R
FLORA*         SUNNY     56  52  84 N6        30.28R
FAIRFIELD*     SUNNY    N/A N/A N/A NE3       30.27R
HARRISBURG*    SUNNY     58  55  87 NE6       30.27R
ROBINSON*      SUNNY     56  54  90 N6        30.27S
CARMI*         SUNNY     60  55  83 N5        30.27R
$$

ABBREVIATIONS USED IN REMARKS
   TC - TEMPERATURE IN CELSIUS
  WCI - WIND CHILL INDEX
   HX - HEAT INDEX
  VSB - VISIBILITY
$$



USA.gov is the U.S. government's official web portal to all federal, state and local government web resources and services.